Regional Weather Roundup
Issued by NWS

Home | Current Version | Previous Version | Graphics & Text | Print | Product List | Glossary On
Versions: 1 2 3 4 5 6 7 8 9 10 11 12 13 14 15 16 17 18 19 20 21 22 23 24 25 26 27 28 29 30 31 32 33 34 35 36 37 38 39 40 41 42 43 44 45 46 47 48 49 50
000
ASUS43 KDMX 240606
RWRIA

WEATHER ROUNDUP FOR IOWA
NATIONAL WEATHER SERVICE DES MOINES IA
100 AM CDT FRI MAR 24 2017

NOTE: "FAIR" INDICATES FEW OR NO CLOUDS BELOW 12,000 FEET WITH NO
SIGNIFICANT WEATHER AND/OR OBSTRUCTIONS TO VISIBILITY.

* - THESE STATIONS ARE NOT NWS STATIONS...THUS NOT UNDER NWS
QUALITY CONTROL.  THEY ALSO DO NOT REPORT WEATHER SUCH
AS PRECIPITATION OR FOG.

IAZ001>003-012>014-020>022-031>034-043>046-240700-
   NORTHWEST IOWA

CITY           SKY/WX    TMP DP  RH WIND       PRES   REMARKS
CARROLL *      CLOUDY    66  52  59 SW26G32   29.72R
CHEROKEE *     LGT RAIN  46  41  84 N7        29.76R
LE MARS *      DRIZZLE   46  45  93 N12       29.73F
ORANGE CITY *  RAIN      45  45 100 E8        29.72F
SHELDON *      RAIN      43  43 100 CALM      29.77R
SIOUX CITY     LGT RAIN  51  47  86 N12       29.75R
6HR MIN TEMP:  51; 6HR MAX TEMP:  58; 6HR PCP:  0.01;

SPENCER        LGT RAIN  42  40  92 NE8       29.76R
6HR MIN TEMP:  42; 6HR MAX TEMP:  49; 6HR PCP:  0.21;

STORM LAKE *   CLOUDY    45  39  81 SE8       29.70R
$$

IAZ055>058-069>071-079>083-090>094-240700-
   SOUTHWEST IOWA

CITY           SKY/WX    TMP DP  RH WIND       PRES   REMARKS
ATLANTIC *     CLOUDY    68  48  49 S18G25    29.70S
AUDUBON *      LGT RAIN  66  48  52 S12G24    29.72S
CLARINDA *     CLOUDY    68  48  49 S18G28    29.76R
COUNCIL BLFS * CLOUDY    68  50  52 SW18G35   29.69R
CRESTON *      CLOUDY    61  46  59 S16       29.77R
HARLAN  *      CLOUDY    68  48  49 S22G28    29.73R
LAMONI         MOCLDY    64  46  52 S14       29.78S
6HR MIN TEMP:  64; 6HR MAX TEMP:  74;

RED OAK *      CLOUDY    70  48  46 S22G31    29.72S
SHENANDOAH *   CLOUDY    68  48  49 S21G30    29.72F
$$

IAZ047>049-059>061-072>074-084-240700-
   CENTRAL IOWA

CITY           SKY/WX    TMP DP  RH WIND       PRES   REMARKS
AMES           CLOUDY    49  41  74 SE9       29.77S
6HR MIN TEMP:  48; 6HR MAX TEMP:  50;

ANKENY *       PTCLDY    52  41  66 VRB5      29.79R
BOONE *        CLOUDY    48  41  76 S13       29.75R
CHARITON *     CLOUDY    57  45  62 S13       29.77F
DES MOINES     MOCLDY    56  42  59 SE6       29.76S
6HR MIN TEMP:  53; 6HR MAX TEMP:  57;

GRINNELL*      CLOUDY    48  40  74 SE12      29.80F
MARSHALLTOWN   CLOUDY    45  39  79 SE17      29.77F
6HR MIN TEMP:  44; 6HR MAX TEMP:  47;

NEWTON *       CLOUDY    46  39  76 SE12      29.78S
PELLA *        CLOUDY    49  40  73 SE9       29.80F
PERRY *          N/A     52  39  62 E8        29.75R
$$

IAZ004>006-015-016-023>025-035-036-240700-
   NORTH CENTRAL IOWA

CITY           SKY/WX    TMP DP  RH WIND       PRES   REMARKS
ALGONA *       CLOUDY    43  39  87 SE15G22   29.72F
CLARION *      CLOUDY    41  41 100 E15       29.74S
ESTHERVILLE    TSTM      39  39 100 NE7       29.76R FOG     WCI  34
6HR MIN TEMP:  38; 6HR MAX TEMP:  41; 6HR PCP:  0.22;

FORT DODGE *   CLOUDY    46  37  71 CALM      29.75F
MASON CITY     CLOUDY    40  37  89 SE13      29.79S WCI  32
6HR MIN TEMP:  39; 6HR MAX TEMP:  41; 6HR PCP: TRACE;

FOREST CITY *  CLOUDY    41  37  87 E13       29.76F
WEBSTER CITY * CLOUDY    50  41  71 SE9       29.71R
IOWA FALLS *     N/A     47  40  76 SE9       29.77R
$$

IAZ007>011-017>019-026>030-037>042-050>054-066-240700-
   NORTHEAST IOWA

CITY           SKY/WX    TMP DP  RH WIND       PRES   REMARKS
CEDAR RAPIDS   CLOUDY    41  40  96 SE9       29.83S
6HR MIN TEMP:  39; 6HR MAX TEMP:  44;

CHARLES CITY * CLOUDY    41  41 100 E9        29.83F
CLINTON *      CLOUDY    43  38  82 S13       29.90S
DECORAH *      CLOUDY    41  37  87 CALM      29.85S
DUBUQUE        PTCLDY    41  35  79 S14G21    29.87F
6HR MIN TEMP:  38; 6HR MAX TEMP:  42;

MONTICELLO *   PTCLDY    39  36  87 SE10      29.85F WCI  32
OELWEIN *      CLOUDY    41  39  93 SE12G17   29.83R
WATERLOO       CLOUDY    43  38  82 SE8       29.81R
6HR MIN TEMP:  40; 6HR MAX TEMP:  43;

$$

IAZ064-065-067-068-078-240700-
   EAST CENTRAL IOWA

CITY           SKY/WX    TMP DP  RH WIND       PRES   REMARKS
DAVENPORT      PTCLDY    45  39  79 S13       29.88F
6HR MIN TEMP:  41; 6HR MAX TEMP:  46;

IOWA CITY      PTCLDY    44  39  82 E5        29.87S
6HR MIN TEMP:  44; 6HR MAX TEMP:  47;

MUSCATINE *    PTCLDY    46  41  81 SE8       29.86F
QUAD CITIES    PTCLDY    48  40  73 VRB5      29.88F
6HR MIN TEMP:  41; 6HR MAX TEMP:  48;

$$

IAZ062-063-075>077-085>089-095>099-240700-
   SOUTHEAST IOWA

CITY           SKY/WX    TMP DP  RH WIND       PRES   REMARKS
BURLINGTON     CLOUDY    54  44  69 S16G25    29.87S
6HR MIN TEMP:  47; 6HR MAX TEMP:  54;

FAIRFIELD *    PTCLDY    54  43  66 S12       29.83S
FORT MADISON * CLOUDY    52  43  71 S10       29.88S
KEOKUK *       CLOUDY    57  45  62 S10G17    29.86F
OSKALOOSA *      N/A     48  40  75 SE10      29.82F
CENTERVILLE *    N/A     55  45  67 S6        29.82S
OTTUMWA        CLOUDY    53  43  68 S8        29.82R
6HR MIN TEMP:  52; 6HR MAX TEMP:  54;

WASHINGTON *   PTCLDY    45  41  87 SE5       29.86S
$$

ABBREVIATIONS USED IN REMARKS
   TC - TEMPERATURES IN CELSIUS
  WCI - WIND CHILL INDEX
   HX - HEAT INDEX
  VSB - VISIBILITY
$$




USA.gov is the U.S. government's official web portal to all federal, state and local government web resources and services.